星链-32548 (STARLINK-32548)

导读 | 豆包AI

STARLINK-32548是美国SpaceX星链星座中的一颗卫星,于2024年11月27日发射。星链项目旨在构建全球卫星互联网星座,为全球偏远地区、高需求区域提供低延迟宽带互联网服务,该卫星是星链大规模组网部署过程中的新增单元,承担增强星座覆盖容量、扩展服务范围的作用。

基本信息
目录编号:
62120
目录名称:
STARLINK-32548
国际标识:
2024-222G
轨道中心:
EARTH
卫星名称:
星链-32548
卫星全名:
星链-32548 (STARLINK-32548)
卫星状态:
在轨 (已飞行473 天)
发射日期:
2024-11-27 UTC
国别 :
美国 (US)
星等 :
--
轨道信息
数据来源 国际轨道数据
星历时间: 2026-03-15T02:39:30+0800
11小时前
查看轨道信息
半长轴: 6861.138km
偏心率: 0.0000922
轨道倾角: 43.003°
近地点辐角 274.956°
升交点赤经 107.743°
平近点角 85.118°
近地点: 482.368km
远地点: 483.634km
周期: 94.266分钟
每日圈数: 15.275963
详细信息
固有亮度:
5
最大亮度:
2.5
卫星平台:
Starlink V1.0
覆盖范围:
全球
运营商:
太空探索技术公司
运营商所在国:
美国
制造商(研发单位):
太空探索技术公司
制造商所在国:
美国
使用方式:
暂无
卫星简介
Starlink 计划是 SpaceX 推出的全球卫星互联网项目,通过发射低轨道卫星,为全球尤其是偏远地区提供高速、低延迟的互联网服务。自 2019 年起,Starlink 已部署数千颗卫星,旨在缩小全球数字鸿沟,推动互联网普及。该项目还为军事、航空等行业提供通信支持,带来广泛经济效益。
2D轨道图
3D轨道图
轨道高度分析图
轨道倾角分析图
轨道综合分析图
查看轨道综合分析图